Zurück zum Katalog

METEOR 2-8 DEB

AktivPO
NORAD 36337·DEBRIS·🇷🇺 Russia

Gestartet Mar 25, 1982 von Plesetsk Cosmodrome

Loading…

Nächste Überflüge (nächste 24 Stunden)

TLE

AktuellSource: Space-Track

Epoche: Sep 14, 2026, 01:54 UTC

1 36337U 82025X   26257.07928949  .00000727  00000-0  33876-3 0  9995
2 36337  82.5246 180.1853 0016872 349.4867  10.5958 14.19272221637715

Verfolge METEOR 2-8 DEB in Echtzeit mit AllMySat

Download on the App Store